Albany, NY

10:57 PM EDT on July 25, 2017 (GMT -0400)
Albany International

Weather History for KALB - October, 2012

Change the Weather History Date:

Tuesday, October 30, 2012

  Actual Average Record
Temperature  
Mean Temperature 58 °F 45 °F  
Max Temperature 65 °F 54 °F 80 °F (1946)
Min Temperature 51 °F 36 °F 20 °F (1969)
Degree Days  
Heating Degree Days 7 20  
Month to date heating degree days 342 459  
Since 1 July heating degree days 470 626  
Cooling Degree Days 0 0  
Month to date cooling degree days 0 0  
Year to date cooling degree days 814 594  
Growing Degree Days 10 (Base 50)    
Moisture  
Dew Point 47 °F    
Average Humidity 68    
Maximum Humidity 83    
Minimum Humidity 52    
Precipitation  
Precipitation 0.02 in 0.11 in 1.67 in (1917)
Month to date precipitation 3.38 3.56  
Year to date precipitation 32.05 33.01  
Snow  
Snow 0.00 in 0.10 in 0.10 in (1925)
Month to date snowfall 0.0 0.3  
Since 1 July snowfall 0.0 0.3  
Since 1 September snowfall 0.0 0.3  
Snow Depth 0.00 in    
Sea Level Pressure  
Sea Level Pressure 29.37 in    
Wind  
Wind Speed 10 mph (SE)    
Max Wind Speed 24 mph    
Max Gust Speed 37 mph    
Visibility 10 miles    
Events Rain    
T = Trace of Precipitation, MM = Missing Value Source: NWS Daily Summary

Daily Weather History Graph

Daily Weather History Graph

Search for Another Location

Airport or City:

Trip Planner

Search our weather history database for the weather conditions in past years. The results will help you decide how hot, cold, wet, or windy it might be!

Date:

Astronomy

Oct. 30, 2012 Rise Set
Actual Time 7:27 AM EDT 5:49 PM EDT
Civil Twilight 6:57 AM EDT 6:19 PM EDT
Nautical Twilight 6:24 AM EDT 6:52 PM EDT
Astronomical Twilight 5:51 AM EDT 7:25 PM EDT
Moon 6:15 PM EDT (10/30) 8:13 AM EDT (10/30)
Length of Visible Light 11h 21m
Length of Day
10h 22m
Full, 99% of the Moon is Illuminated
Oct 30
Full
Nov 6
Last Quarter
Nov 13
New
Nov 20
First Quarter
Nov 28
Full

Hourly Weather History & Observations

Time (EDT) Temp. Dew Point Humidity Pressure Visibility Wind Dir Wind Speed Gust Speed Precip Events Conditions
12:51 AM 61.0 °F 55.9 °F 83% 29.16 in 10.0 mi SSE 12.7 mph 20.7 mph 0.00 in Rain Light Rain
1:51 AM 62.1 °F 52.0 °F 70% 29.19 in 10.0 mi SE 8.1 mph 18.4 mph 0.00 in   Mostly Cloudy
2:51 AM 60.8 °F 51.8 °F 72% 29.22 in 10.0 mi SE 8.1 mph - N/A   Mostly Cloudy
3:51 AM 60.1 °F 51.1 °F 72% 29.22 in 10.0 mi ESE 6.9 mph 17.3 mph N/A   Mostly Cloudy
4:51 AM 57.0 °F 51.1 °F 81% 29.26 in 10.0 mi SE 11.5 mph 17.3 mph 0.02 in   Mostly Cloudy
5:51 AM 57.9 °F 50.0 °F 75% 29.29 in 10.0 mi SE 8.1 mph - N/A   Mostly Cloudy
6:51 AM 59.0 °F 48.9 °F 69% 29.31 in 10.0 mi SE 8.1 mph 20.7 mph 0.00 in   Mostly Cloudy
7:51 AM 57.9 °F 48.9 °F 72% 29.34 in 10.0 mi ESE 6.9 mph - N/A   Mostly Cloudy
8:51 AM 60.1 °F 48.0 °F 64% 29.35 in 10.0 mi ESE 12.7 mph 20.7 mph N/A   Mostly Cloudy
9:51 AM 62.1 °F 48.9 °F 62% 29.37 in 10.0 mi SE 16.1 mph 23.0 mph N/A   Mostly Cloudy
10:51 AM 62.1 °F 46.0 °F 56% 29.38 in 10.0 mi SSE 18.4 mph 29.9 mph N/A   Mostly Cloudy
11:51 AM 62.1 °F 46.0 °F 56% 29.39 in 10.0 mi SE 10.4 mph 25.3 mph 0.00 in Rain Light Rain
12:51 PM 63.0 °F 44.1 °F 50% 29.40 in 10.0 mi SSE 23.0 mph 33.4 mph N/A   Mostly Cloudy
1:51 PM 63.0 °F 45.0 °F 52% 29.40 in 10.0 mi SSE 11.5 mph 31.1 mph 0.00 in   Mostly Cloudy
2:51 PM 63.0 °F 45.0 °F 52% 29.42 in 10.0 mi SSE 11.5 mph 23.0 mph N/A   Mostly Cloudy
3:51 PM 63.0 °F 45.0 °F 52% 29.42 in 10.0 mi SSE 16.1 mph 24.2 mph N/A   Mostly Cloudy
4:51 PM 62.1 °F 45.0 °F 53% 29.45 in 10.0 mi SSE 12.7 mph 21.9 mph N/A   Mostly Cloudy
5:51 PM 62.1 °F 44.1 °F 52% 29.46 in 10.0 mi SSE 11.5 mph 23.0 mph N/A   Mostly Cloudy
6:51 PM 60.1 °F 44.1 °F 55% 29.47 in 10.0 mi SE 8.1 mph 19.6 mph N/A   Mostly Cloudy
7:51 PM 59.0 °F 45.0 °F 60% 29.48 in 10.0 mi SSE 5.8 mph - N/A   Mostly Cloudy
8:51 PM 57.0 °F 46.0 °F 67% 29.49 in 10.0 mi South 5.8 mph - N/A   Mostly Cloudy
9:51 PM 55.9 °F 45.0 °F 67% 29.49 in 10.0 mi ESE 3.5 mph - N/A   Mostly Cloudy
10:51 PM 55.0 °F 45.0 °F 69% 29.47 in 10.0 mi South 5.8 mph - N/A   Mostly Cloudy
11:51 PM 51.8 °F 46.4 °F 82% 29.46 in 10.0 mi Calm Calm - N/A   Mostly Cloudy